Meteo Giornale » Osservazioni meteo Germania » Friedrichshafen

ore: 22:50 - Osservazioni Meteo Friedrichshafen
Lat. 47° 40' N Lon. 9° 31' E Alt. 416 metri s.l.m.

coperto Europe/Berlin

1 °C

Coperto

Temp. 24 Ore

-4 °C

2 °C

Nord

0 Km/h

Dew point 0 °C

Umidità 93 %

Visibilità  10 Km

Il sole sorge alle ore 08:02

Il sole tramonta alle ore 17:01

Data e Ora Cielo e Fenomeni T °C DP °C Um. % Pres. hPa Vis. km Vento km/h
Oggi h: 22:50 coperto Coperto 1 0 93 1024 10 N 0
Oggi h: 22:20 coperto Coperto 2 0 86 1023 10 O/SO 9.3
Oggi h: 21:50 coperto Coperto 1 0 93 1023 10 N 5.5
Oggi h: 21:20 coperto Coperto 2 0 86 1023 10 N 5.5
Oggi h: 20:50 coperto Coperto 2 0 86 1023 10 N 5.5
Oggi h: 20:20 coperto Coperto 1 0 93 1023 10 N 5.5
Oggi h: 19:50 coperto Coperto 1 0 93 1022 10 N 5.5
Oggi h: 19:20 coperto Coperto 1 0 93 1022 10 N 3.7
Oggi h: 18:50 coperto Coperto 1 0 93 1022 10 N 3.7
Oggi h: 18:20 coperto Coperto 1 0 93 1021 10 O/SO 7.4
Oggi h: 17:50 coperto Coperto 1 0 93 1021 10 N 3.7
Oggi h: 16:50 coperto Coperto 1 0 93 1020 10 O/SO 9.3
Oggi h: 15:50 coperto Coperto 1 0 93 1019 10 N 3.7
Oggi h: 15:20 coperto Coperto 1 0 93 1018 10 O/SO 9.3
Oggi h: 14:50 coperto Coperto 1 0 93 1018 10 O 7.4
Oggi h: 14:20 coperto Coperto 1 0 93 1018 10 O/SO 11.1
Oggi h: 13:50 coperto Coperto 1 0 93 1018 10 O/SO 18.5
Oggi h: 13:20 coperto Coperto 1 -0 93 1017 10 O 11.1
Oggi h: 12:50 coperto Coperto 1 0 93 1018 10 O 13
Oggi h: 12:20 coperto Coperto 1 0 93 1018 7 O 11.1
Oggi h: 11:50 coperto Coperto 1 -0 93 1018 5 O 11.1
Oggi h: 11:20 coperto Coperto 1 -0 93 1018 10 O 13
Oggi h: 10:50 coperto Coperto 1 0 93 1017 7 O 11.1
Oggi h: 10:20 coperto Coperto -0 -0 100 1017 4 O/SO 7.4
Oggi h: 09:50 coperto Coperto -1 -1 100 1017 2 N 3.7
Oggi h: 09:20 coperto Coperto -1 -1 100 1017 0.9 N 5.5
Oggi h: 08:50 coperto Coperto -1 -1 100 1017 2 N 3.7
Oggi h: 08:20 coperto Coperto -1 -1 100 1016 1 N 0
Oggi h: 07:50 coperto Coperto -1 -2 92 1016 2 N 1.8
Oggi h: 07:20 coperto Coperto -1 -1 100 1016 2 N 0
Oggi h: 06:50 coperto Coperto -1 -1 100 1016 2 O/SO 7.4
Oggi h: 06:20 coperto Coperto -2 -2 100 1016 1 N 3.7
Oggi h: 05:50 coperto Coperto -2 -2 100 1016 2 N 5.5
Oggi h: 04:50 coperto Coperto -3 -3 100 1016 1 N 1.8
Oggi h: 04:20 coperto Coperto -3 -4 92 1016 1 N 5.5
Oggi h: 03:50 coperto Coperto -3 -4 92 1016 2 S/SE 9.3
Oggi h: 03:20 coperto Coperto -3 -4 92 1016 2 SE 11.1
Oggi h: 02:50 coperto Coperto -3 -4 92 1017 2 SE 11.1
Oggi h: 02:20 nebbia Cielo Invisibile -3 -4 92 1017 2 N 7.4
Oggi h: 01:50 coperto Coperto -3 -4 92 1018 2 SE 13
Oggi h: 01:20 coperto Coperto -3 -4 92 1018 1 S/SE 13
Oggi h: 00:50 coperto Coperto -4 -4 100 1019 2 N 5.5
Oggi h: 00:20 coperto Coperto -4 -5 92 1019 2 SE 7.4
Ieri h: 23:50 coperto Coperto -4 -5 92 1020 3 S/SE 11.1
Ieri h: 23:20 coperto Coperto -4 -5 92 1020 7 S/SE 7.4
Ieri h: 22:50 coperto Coperto -4 -5 92 1021 5 N 3.7